Location: Byszew
(52.1813°N, 19.2693°E)
Time: 19:55:07
(UTC+00:00)

CZ-4B R/B - Pass Details

Date: 03 March 2021
Orbit: 388 x 454 km, 97.6° (Epoch: 15 April)

Event Time Altitude Azimuth Distance (km) Brightness Sun altitude
Rises 17:03:58 0° 14° (NNE) 2,296 4.8 -6.6°
Reaches altitude 10° 17:05:56 10° 16° (NNE) 1,436 3.8 -6.9°
Maximum altitude 17:09:00 82° 103° (ESE) 403 1.1 -7.3°
Drops below altitude 10° 17:12:03 10° 192° (SSW) 1,437 4.1 -7.8°
Sets 17:14:02 0° 194° (SSW) 2,298 5.2 -8.1°
